Location: Rounton
(54.4000°N, 1.3500°W)
Time: 20:12:42
(UTC+00:00)

A-11 Canister half - Pass Details

Date: 08 December 2021
Orbit: 1516 x 1684 km, 47.2° (Epoch: 19 January)

Event Time Altitude Azimuth Distance (km) Brightness Sun altitude
Rises 09:49:08 0° 270° (W) 4,816 11.3 8.1°
Reaches altitude 10° 09:52:17 10° 266° (W) 3,852 10.9 8.3°
Maximum altitude 10:01:46 55° 193° (SSW) 1,944 10.2 8.9°
Drops below altitude 10° 10:11:29 10° 119° (ESE) 3,941 12.2 9.6°
Sets 10:14:45 0° 116° (ESE) 4,933 12.5 9.7°
